When you browse on this site, cookies collect data to enhance your experience and personalize the content and advertising you see.
Visit our Privacy Policy to learn more. By continuing to use the site, you agree to this use of cookies and data.
  • In Spain
  • List of Countries
  • For 7 days
  • Water Temperature
  • Weather Map
  • Weather Widgets
  • user-avatar
    Login

    Hourly Weather Chester

    Today, 1 June, Monday

    Time Temperature Precipitation Wind Pressure Humidity
    00:00 +12°C° 0 mm 3 mps 768 mmHg 76%
    01:00 +12°C° 0 mm 2 mps 768 mmHg 77%
    02:00 +10°C° 0 mm 2 mps 768 mmHg 78%
    03:00 +10°C° 0 mm 1 mps 768 mmHg 79%
    04:00 +11°C° 0 mm 1 mps 768 mmHg 76%
    05:00 +12°C° 0 mm 1 mps 768 mmHg 74%
    06:00 +13°C° 0 mm 1 mps 768 mmHg 71%
    07:00 +15°C° 0 mm 2 mps 768 mmHg 66%
    08:00 +16°C° 0 mm 2 mps 768 mmHg 61%
    09:00 +18°C° 0 mm 3 mps 768 mmHg 57%
    10:00 +19°C° 0 mm 3 mps 768 mmHg 54%
    11:00 +21°C° 0 mm 3 mps 768 mmHg 51%
    12:00 +22°C° 0 mm 3 mps 767 mmHg 49%
    13:00 +22°C° 0 mm 3 mps 767 mmHg 49%
    14:00 +22°C° 0 mm 3 mps 767 mmHg 49%
    15:00 +24°C° 0 mm 3 mps 767 mmHg 49%
    16:00 +22°C° 0 mm 3 mps 767 mmHg 53%
    17:00 +22°C° 0 mm 3 mps 767 mmHg 58%
    18:00 +21°C° 0 mm 2 mps 767 mmHg 62%
    19:00 +19°C° 0 mm 2 mps 767 mmHg 70%
    20:00 +17°C° 0 mm 2 mps 767 mmHg 77%
    21:00 +15°C° 0 mm 2 mps 767 mmHg 85%
    22:00 +14°C° 0 mm 2 mps 767 mmHg 84%
    23:00 +13°C° 0 mm 1 mps 767 mmHg 83%

    Tomorrow, 2 June, Tuesday

    Time Temperature Precipitation Wind Pressure Humidity
    00:00 +12°C° 0 mm 1 mps 767 mmHg 82%
    01:00 +12°C° 0 mm 1 mps 767 mmHg 81%
    02:00 +12°C° 0 mm 1 mps 767 mmHg 81%
    03:00 +11°C° 0 mm 1 mps 767 mmHg 81%
    04:00 +12°C° 0 mm 1 mps 767 mmHg 79%
    05:00 +13°C° 0 mm 1 mps 767 mmHg 76%
    06:00 +12°C° 0 mm 0 mps 766 mmHg 74%
    07:00 +14°C° 0 mm 0 mps 766 mmHg 67%
    08:00 +16°C° 0 mm 0 mps 766 mmHg 60%
    09:00 +17°C° 0 mm 0 mps 766 mmHg 53%
    10:00 +20°C° 0 mm 1 mps 765 mmHg 49%
    11:00 +22°C° 0 mm 1 mps 765 mmHg 45%
    12:00 +23°C° 0 mm 1 mps 765 mmHg 40%
    13:00 +23°C° 0 mm 2 mps 764 mmHg 42%
    14:00 +23°C° 0 mm 2 mps 763 mmHg 43%
    15:00 +22°C° 0 mm 3 mps 763 mmHg 44%
    16:00 +21°C° 0 mm 3 mps 762 mmHg 49%
    17:00 +20°C° 0 mm 3 mps 762 mmHg 54%
    18:00 +19°C° 0 mm 4 mps 761 mmHg 59%
    19:00 +18°C° 0 mm 3 mps 761 mmHg 64%
    20:00 +16°C° 0 mm 3 mps 761 mmHg 68%
    21:00 +15°C° 0 mm 2 mps 761 mmHg 73%
    22:00 +14°C° 0 mm 2 mps 760 mmHg 73%
    23:00 +14°C° 0 mm 2 mps 760 mmHg 74%

    Day after tomorrow, 3 June, Wednesday

    Time Temperature Precipitation Wind Pressure Humidity
    00:00 +14°C° 0 mm 2 mps 759 mmHg 75%
    01:00 +14°C° 0.1 mm 2 mps 759 mmHg 79%
    02:00 +14°C° 0.1 mm 2 mps 758 mmHg 83%
    03:00 +13°C° 0.1 mm 3 mps 758 mmHg 87%
    04:00 +13°C° 0.2 mm 3 mps 758 mmHg 89%
    05:00 +13°C° 0.2 mm 3 mps 757 mmHg 90%
    06:00 +13°C° 0.2 mm 3 mps 757 mmHg 92%
    07:00 +13°C° 0.2 mm 3 mps 757 mmHg 91%
    08:00 +13°C° 0.2 mm 3 mps 757 mmHg 90%
    09:00 +13°C° 0.2 mm 3 mps 757 mmHg 90%
    10:00 +13°C° 0.3 mm 3 mps 757 mmHg 89%
    11:00 +13°C° 0.3 mm 4 mps 757 mmHg 87%
    12:00 +13°C° 0.3 mm 4 mps 758 mmHg 86%
    13:00 +13°C° 0.1 mm 4 mps 758 mmHg 84%
    14:00 +14°C° 0.1 mm 4 mps 757 mmHg 81%
    15:00 +14°C° 0.1 mm 4 mps 757 mmHg 78%
    16:00 +14°C° 0.1 mm 5 mps 757 mmHg 77%
    17:00 +14°C° 0.1 mm 5 mps 757 mmHg 76%
    18:00 +13°C° 0.1 mm 5 mps 757 mmHg 75%
    19:00 +13°C° 0 mm 4 mps 758 mmHg 74%
    20:00 +12°C° 0 mm 4 mps 758 mmHg 74%
    21:00 +12°C° 0 mm 3 mps 758 mmHg 73%
    22:00 +11°C° 0 mm 3 mps 758 mmHg 76%
    23:00 +10°C° 0 mm 2 mps 757 mmHg 79%

    4 June, Thursday

    Time Temperature Precipitation Wind Pressure Humidity
    00:00 +9°C° 0 mm 2 mps 757 mmHg 81%
    01:00 +8°C° 0 mm 2 mps 757 mmHg 80%
    02:00 +8°C° 0 mm 2 mps 756 mmHg 79%
    03:00 +9°C° 0 mm 1 mps 756 mmHg 78%
    04:00 +9°C° 0 mm 2 mps 755 mmHg 79%
    05:00 +10°C° 0 mm 3 mps 755 mmHg 80%
    06:00 +10°C° 0 mm 3 mps 755 mmHg 80%
    07:00 +11°C° 0.1 mm 4 mps 754 mmHg 77%
    08:00 +10°C° 0.1 mm 5 mps 754 mmHg 75%
    09:00 +12°C° 0.1 mm 5 mps 754 mmHg 72%
    10:00 +12°C° 0.3 mm 5 mps 753 mmHg 70%
    11:00 +13°C° 0.3 mm 5 mps 753 mmHg 69%
    12:00 +13°C° 0.3 mm 5 mps 753 mmHg 67%
    13:00 +14°C° 0.1 mm 5 mps 752 mmHg 65%
    14:00 +14°C° 0.1 mm 6 mps 752 mmHg 63%
    15:00 +15°C° 0.1 mm 6 mps 751 mmHg 61%
    16:00 +14°C° 0.1 mm 6 mps 751 mmHg 63%
    17:00 +14°C° 0.1 mm 6 mps 751 mmHg 65%
    18:00 +14°C° 0.1 mm 6 mps 751 mmHg 67%
    19:00 +13°C° 0.2 mm 6 mps 751 mmHg 71%
    20:00 +12°C° 0.2 mm 5 mps 752 mmHg 76%
    21:00 +11°C° 0.2 mm 4 mps 752 mmHg 80%
    22:00 +10°C° 0.2 mm 4 mps 752 mmHg 82%
    23:00 +10°C° 0.2 mm 3 mps 752 mmHg 84%

    5 June, Friday

    Time Temperature Precipitation Wind Pressure Humidity
    00:00 +10°C° 0.2 mm 2 mps 752 mmHg 86%
    01:00 +10°C° 0 mm 1 mps 752 mmHg 87%
    02:00 +10°C° 0 mm 1 mps 752 mmHg 87%
    03:00 +9°C° 0 mm 1 mps 752 mmHg 87%
    04:00 +10°C° 0 mm 1 mps 752 mmHg 88%
    05:00 +9°C° 0 mm 2 mps 751 mmHg 88%
    06:00 +10°C° 0 mm 3 mps 751 mmHg 88%
    07:00 +11°C° 0.1 mm 4 mps 751 mmHg 83%
    08:00 +10°C° 0.1 mm 5 mps 751 mmHg 79%
    09:00 +11°C° 0.1 mm 6 mps 751 mmHg 74%
    10:00 +12°C° 0.1 mm 5 mps 750 mmHg 75%
    11:00 +11°C° 0.1 mm 4 mps 750 mmHg 76%
    12:00 +11°C° 0.1 mm 3 mps 749 mmHg 77%
    13:00 +11°C° 0.1 mm 4 mps 749 mmHg 78%
    14:00 +12°C° 0.1 mm 5 mps 748 mmHg 78%
    15:00 +13°C° 0.1 mm 5 mps 748 mmHg 79%
    16:00 +13°C° 0.4 mm 6 mps 747 mmHg 79%
    17:00 +12°C° 0.4 mm 7 mps 747 mmHg 79%
    18:00 +12°C° 0.4 mm 7 mps 747 mmHg 79%
    19:00 +11°C° 0.2 mm 7 mps 747 mmHg 80%
    20:00 +10°C° 0.2 mm 7 mps 748 mmHg 82%
    21:00 +10°C° 0.2 mm 6 mps 748 mmHg 84%
    22:00 +9°C° 0.2 mm 6 mps 749 mmHg 85%
    23:00 +9°C° 0.2 mm 5 mps 749 mmHg 87%

    6 June, Saturday

    Time Temperature Precipitation Wind Pressure Humidity
    00:00 +8°C° 0.2 mm 5 mps 749 mmHg 89%
    01:00 +8°C° 0.3 mm 4 mps 749 mmHg 88%
    02:00 +8°C° 0.3 mm 4 mps 750 mmHg 88%
    03:00 +8°C° 0.3 mm 4 mps 750 mmHg 87%
    04:00 +8°C° 0.2 mm 4 mps 750 mmHg 85%
    05:00 +8°C° 0.2 mm 5 mps 751 mmHg 83%
    06:00 +8°C° 0.2 mm 5 mps 751 mmHg 80%
    07:00 +9°C° 0.2 mm 6 mps 751 mmHg 74%
    08:00 +9°C° 0.2 mm 7 mps 751 mmHg 69%
    09:00 +10°C° 0.2 mm 8 mps 751 mmHg 63%
    10:00 +10°C° 0.2 mm 9 mps 751 mmHg 59%
    11:00 +11°C° 0.2 mm 9 mps 751 mmHg 55%
    12:00 +11°C° 0.2 mm 10 mps 751 mmHg 51%
    13:00 +11°C° 0.1 mm 10 mps 751 mmHg 52%
    14:00 +11°C° 0.1 mm 10 mps 751 mmHg 53%
    15:00 +9°C° 0.1 mm 10 mps 751 mmHg 55%
    16:00 +9°C° 0.1 mm 10 mps 752 mmHg 57%
    17:00 +8°C° 0.1 mm 9 mps 752 mmHg 60%
    18:00 +8°C° 0.1 mm 9 mps 752 mmHg 63%
    19:00 +7°C° 0.1 mm 9 mps 752 mmHg 66%
    20:00 +7°C° 0.1 mm 8 mps 752 mmHg 68%
    21:00 +6°C° 0.1 mm 8 mps 753 mmHg 71%
    22:00 +6°C° 0.1 mm 8 mps 753 mmHg 73%
    23:00 +6°C° 0.1 mm 8 mps 752 mmHg 75%
    Show more